Time,TemperatureF,DewpointF,PressureIn,WindDirection,WindDirectionDegrees,WindSpeedMPH,WindSpeedGustMPH,Humidity,HourlyPrecipIn,Conditions,Clouds,dailyrainin,SoftwareType,DateUTC
2013-06-11 00:04:00,75.7,57.9,29.81,NW,315,0.0,0.9,54,0.00,,---,0.00,VWS V13.01,2013-06-10 21:04:00,
2013-06-11 00:09:00,75.6,57.8,29.81,North,0,0.0,0.9,54,0.00,,---,0.00,VWS V13.01,2013-06-10 21:09:00,
2013-06-11 00:14:00,75.6,57.8,29.81,West,270,0.0,0.9,54,0.00,,---,0.00,VWS V13.01,2013-06-10 21:14:00,
2013-06-11 00:20:00,75.4,57.6,29.80,NNE,22,0.0,0.9,54,0.00,,---,0.00,VWS V13.01,2013-06-10 21:20:00,
2013-06-11 00:25:00,75.4,57.6,29.81,ENE,67,0.0,0.9,54,0.00,,---,0.00,VWS V13.01,2013-06-10 21:25:00,
2013-06-11 00:30:00,75.4,58.1,29.80,WNW,292,0.0,0.9,55,0.00,,---,0.00,VWS V13.01,2013-06-10 21:30:00,
2013-06-11 00:35:00,75.2,57.9,29.80,WNW,292,0.0,0.9,55,0.00,,---,0.00,VWS V13.01,2013-06-10 21:35:00,
2013-06-11 00:40:00,75.0,57.8,29.80,SE,135,0.0,0.9,55,0.00,,---,0.00,VWS V13.01,2013-06-10 21:40:00,
2013-06-11 00:45:00,75.0,57.8,29.80,SW,225,0.0,0.9,55,0.00,,---,0.00,VWS V13.01,2013-06-10 21:45:00,
2013-06-11 00:50:00,75.0,57.8,29.81,South,180,0.0,0.9,55,0.00,,---,0.00,VWS V13.01,2013-06-10 21:50:00,
2013-06-11 00:55:00,75.0,58.3,29.81,WSW,247,0.0,0.9,56,0.00,,---,0.00,VWS V13.01,2013-06-10 21:55:00,
2013-06-11 01:00:00,74.8,57.6,29.81,SW,225,0.0,0.9,55,0.00,,---,0.00,VWS V13.01,2013-06-10 22:00:00,
2013-06-11 01:05:00,74.8,57.6,29.80,West,270,0.0,0.9,55,0.00,,---,0.00,VWS V13.01,2013-06-10 22:05:00,
2013-06-11 01:10:00,74.8,57.6,29.81,WSW,247,0.0,0.9,55,0.00,,---,0.00,VWS V13.01,2013-06-10 22:10:00,
2013-06-11 01:15:00,74.8,57.6,29.80,North,0,0.0,0.9,55,0.00,,---,0.00,VWS V13.01,2013-06-10 22:15:00,
2013-06-11 01:20:00,74.8,57.6,29.80,NNE,22,0.0,0.9,55,0.00,,---,0.00,VWS V13.01,2013-06-10 22:20:00,
2013-06-11 01:25:00,74.8,58.1,29.82,WSW,247,0.0,0.9,56,0.00,,---,0.02,VWS V13.01,2013-06-10 22:25:00,
2013-06-11 01:30:00,75.0,58.8,29.81,NE,45,0.0,0.9,57,0.00,,---,0.02,VWS V13.01,2013-06-10 22:30:00,
2013-06-11 01:35:00,75.0,59.7,29.80,NE,45,0.0,2.2,59,0.00,,---,0.02,VWS V13.01,2013-06-10 22:35:00,
2013-06-11 01:40:00,74.8,60.5,29.80,NNW,337,0.0,1.3,61,0.00,,---,0.02,VWS V13.01,2013-06-10 22:40:00,
2013-06-11 01:45:00,74.5,61.1,29.80,SSW,202,0.0,1.3,63,0.00,,---,0.02,VWS V13.01,2013-06-10 22:45:00,
2013-06-11 01:50:00,74.3,61.3,29.80,NE,45,0.0,1.3,64,0.00,,---,0.05,VWS V13.01,2013-06-10 22:50:00,
2013-06-11 01:55:00,74.1,61.6,29.80,East,90,0.0,1.3,65,0.00,,---,0.05,VWS V13.01,2013-06-10 22:55:00,
2013-06-11 02:00:00,73.9,62.3,29.81,East,90,0.0,1.3,67,0.00,,---,0.05,VWS V13.01,2013-06-10 23:00:00,
2013-06-11 02:05:00,73.6,62.4,29.80,NE,45,0.0,1.3,68,0.00,,---,0.05,VWS V13.01,2013-06-10 23:05:00,
2013-06-11 02:10:00,73.2,62.0,29.81,NNE,22,0.0,1.3,68,0.00,,---,0.05,VWS V13.01,2013-06-10 23:10:00,
2013-06-11 02:15:00,73.0,62.2,29.80,NNE,22,0.0,1.3,69,0.00,,---,0.05,VWS V13.01,2013-06-10 23:15:00,
2013-06-11 02:20:00,72.7,62.4,29.80,East,90,0.0,1.3,70,0.00,,---,0.05,VWS V13.01,2013-06-10 23:20:00,
2013-06-11 02:25:00,72.7,62.8,29.80,East,90,0.0,1.3,71,0.00,,---,0.05,VWS V13.01,2013-06-10 23:25:00,
2013-06-11 02:30:00,72.3,62.4,29.81,SSE,157,0.0,1.3,71,0.00,,---,0.05,VWS V13.01,2013-06-10 23:30:00,
2013-06-11 02:35:00,72.1,62.6,29.80,East,90,0.0,1.3,72,0.00,,---,0.05,VWS V13.01,2013-06-10 23:35:00,
2013-06-11 02:40:00,72.0,62.5,29.80,SE,135,0.0,1.3,72,0.00,,---,0.05,VWS V13.01,2013-06-10 23:40:00,
2013-06-11 02:45:00,71.8,62.7,29.81,ESE,112,0.0,1.3,73,0.00,,---,0.05,VWS V13.01,2013-06-10 23:45:00,
2013-06-11 02:50:00,71.8,62.7,29.80,NE,45,0.0,1.3,73,0.00,,---,0.05,VWS V13.01,2013-06-10 23:50:00,
2013-06-11 02:55:00,71.8,62.7,29.79,North,0,0.0,1.3,73,0.00,,---,0.05,VWS V13.01,2013-06-10 23:55:00,
2013-06-11 03:00:00,71.8,62.7,29.79,NNW,337,0.0,1.3,73,0.00,,---,0.05,VWS V13.01,2013-06-11 00:00:00,
2013-06-11 03:05:00,71.6,62.5,29.79,SE,135,0.0,2.0,73,0.00,,---,0.05,VWS V13.01,2013-06-11 00:05:00,
2013-06-11 03:10:00,71.4,62.7,29.79,East,90,0.0,2.0,74,0.00,,---,0.05,VWS V13.01,2013-06-11 00:10:00,
2013-06-11 03:15:00,71.4,62.7,29.79,ENE,67,0.0,2.0,74,0.00,,---,0.05,VWS V13.01,2013-06-11 00:15:00,
2013-06-11 03:20:00,71.4,62.7,29.79,ENE,67,0.0,2.0,74,0.00,,---,0.05,VWS V13.01,2013-06-11 00:20:00,
2013-06-11 03:25:00,71.2,62.5,29.79,NE,45,0.0,2.0,74,0.00,,---,0.05,VWS V13.01,2013-06-11 00:25:00,
2013-06-11 03:30:00,71.2,62.5,29.78,East,90,0.0,2.0,74,0.00,,---,0.05,VWS V13.01,2013-06-11 00:30:00,
2013-06-11 03:35:00,71.2,62.5,29.78,North,0,0.0,2.0,74,0.00,,---,0.05,VWS V13.01,2013-06-11 00:35:00,
2013-06-11 03:40:00,71.4,62.7,29.79,NNW,337,0.0,2.2,74,0.00,,---,0.05,VWS V13.01,2013-06-11 00:40:00,
2013-06-11 03:45:00,71.4,63.1,29.79,NE,45,0.0,2.9,75,0.00,,---,0.05,VWS V13.01,2013-06-11 00:45:00,
2013-06-11 03:50:00,71.4,63.1,29.79,ENE,67,0.0,0.9,75,0.00,,---,0.05,VWS V13.01,2013-06-11 00:50:00,
2013-06-11 03:55:00,71.2,62.9,29.78,North,0,0.0,1.6,75,0.00,,---,0.05,VWS V13.01,2013-06-11 00:55:00,
2013-06-11 04:00:00,71.2,62.9,29.78,NNE,22,0.0,2.0,75,0.00,,---,0.05,VWS V13.01,2013-06-11 01:00:00,
2013-06-11 04:05:00,70.9,62.6,29.78,East,90,0.0,4.0,75,0.00,,---,0.05,VWS V13.01,2013-06-11 01:05:00,
2013-06-11 04:10:00,70.7,62.0,29.78,NNE,22,1.1,2.2,74,0.00,,---,0.05,VWS V13.01,2013-06-11 01:10:00,
2013-06-11 04:15:00,70.5,61.4,29.78,NNW,337,0.0,4.7,73,0.00,,---,0.05,VWS V13.01,2013-06-11 01:15:00,
2013-06-11 04:20:00,70.5,61.0,29.78,NNW,337,3.8,3.8,72,0.00,,---,0.05,VWS V13.01,2013-06-11 01:20:00,
2013-06-11 04:25:00,70.5,61.0,29.78,NW,315,0.0,2.5,72,0.00,,---,0.05,VWS V13.01,2013-06-11 01:25:00,
2013-06-11 04:30:00,70.7,61.2,29.78,North,0,0.0,1.8,72,0.00,,---,0.05,VWS V13.01,2013-06-11 01:30:00,
2013-06-11 04:35:00,70.7,60.8,29.79,ENE,67,0.0,1.8,71,0.00,,---,0.05,VWS V13.01,2013-06-11 01:35:00,
2013-06-11 04:40:00,70.7,60.8,29.79,North,0,1.3,1.3,71,0.00,,---,0.05,VWS V13.01,2013-06-11 01:40:00,
2013-06-11 04:45:00,70.7,60.5,29.78,NNE,22,2.5,2.5,70,0.00,,---,0.05,VWS V13.01,2013-06-11 01:45:00,
2013-06-11 04:50:00,70.7,60.5,29.78,WNW,292,0.0,4.5,70,0.00,,---,0.05,VWS V13.01,2013-06-11 01:50:00,
2013-06-11 04:55:00,70.7,60.5,29.78,North,0,0.0,2.2,70,0.00,,---,0.05,VWS V13.01,2013-06-11 01:55:00,
2013-06-11 05:00:00,70.9,61.0,29.78,North,0,0.0,2.5,71,0.00,,---,0.05,VWS V13.01,2013-06-11 02:00:00,
2013-06-11 05:06:00,70.9,61.0,29.78,NNE,22,0.0,2.0,71,0.00,,---,0.05,VWS V13.01,2013-06-11 02:06:00,
2013-06-11 05:11:00,70.9,61.0,29.79,North,0,3.1,3.1,71,0.00,,---,0.05,VWS V13.01,2013-06-11 02:11:00,
2013-06-11 05:16:00,70.7,60.8,29.78,NNE,22,0.0,2.2,71,0.00,,---,0.05,VWS V13.01,2013-06-11 02:16:00,
2013-06-11 05:21:00,70.7,60.8,29.78,North,0,2.0,3.4,71,0.00,,---,0.05,VWS V13.01,2013-06-11 02:21:00,
2013-06-11 05:26:00,70.5,60.7,29.78,NE,45,0.0,2.5,71,0.00,,---,0.05,VWS V13.01,2013-06-11 02:26:00,
2013-06-11 05:31:00,70.3,60.5,29.77,NE,45,0.0,2.7,71,0.00,,---,0.05,VWS V13.01,2013-06-11 02:31:00,
2013-06-11 05:36:00,70.3,60.5,29.77,ENE,67,0.0,2.5,71,0.00,,---,0.05,VWS V13.01,2013-06-11 02:36:00,
2013-06-11 05:41:00,70.3,60.5,29.77,NNW,337,0.0,2.7,71,0.00,,---,0.05,VWS V13.01,2013-06-11 02:41:00,
2013-06-11 05:46:00,70.2,60.4,29.77,North,0,1.1,2.9,71,0.00,,---,0.05,VWS V13.01,2013-06-11 02:46:00,
2013-06-11 05:51:00,70.0,60.2,29.77,North,0,0.0,2.5,71,0.00,,---,0.05,VWS V13.01,2013-06-11 02:51:00,
2013-06-11 05:56:00,70.0,60.2,29.76,NE,45,0.0,4.7,71,0.00,,---,0.05,VWS V13.01,2013-06-11 02:56:00,
2013-06-11 06:01:00,70.0,60.2,29.76,ENE,67,0.0,2.0,71,0.00,,---,0.05,VWS V13.01,2013-06-11 03:01:00,
2013-06-11 06:06:00,70.0,60.2,29.76,North,0,3.6,3.6,71,0.00,,---,0.05,VWS V13.01,2013-06-11 03:06:00,
2013-06-11 06:11:00,70.0,60.6,29.76,NNE,22,5.8,5.8,72,0.00,,---,0.05,VWS V13.01,2013-06-11 03:11:00,
2013-06-11 06:16:00,69.8,60.4,29.76,NNE,22,1.1,6.5,72,0.00,,---,0.05,VWS V13.01,2013-06-11 03:16:00,
2013-06-11 06:21:00,69.6,59.8,29.76,NE,45,0.0,6.0,71,0.00,,---,0.05,VWS V13.01,2013-06-11 03:21:00,
2013-06-11 06:26:00,69.6,59.8,29.76,North,0,2.5,2.5,71,0.00,,---,0.05,VWS V13.01,2013-06-11 03:26:00,
2013-06-11 06:31:00,69.6,59.8,29.76,North,0,2.9,4.3,71,0.00,,---,0.05,VWS V13.01,2013-06-11 03:31:00,
2013-06-11 06:36:00,69.6,59.4,29.76,NNW,337,6.5,6.5,70,0.00,,---,0.05,VWS V13.01,2013-06-11 03:36:00,
2013-06-11 06:41:00,69.6,59.4,29.77,North,0,5.4,7.6,70,0.00,,---,0.05,VWS V13.01,2013-06-11 03:41:00,
2013-06-11 06:46:00,69.6,59.4,29.77,ENE,67,1.8,1.8,70,0.00,,---,0.05,VWS V13.01,2013-06-11 03:46:00,
2013-06-11 06:51:00,69.6,59.8,29.76,North,0,3.8,8.3,71,0.00,,---,0.05,VWS V13.01,2013-06-11 03:51:00,
2013-06-11 06:56:00,69.8,60.0,29.76,North,0,7.6,7.6,71,0.00,,---,0.05,VWS V13.01,2013-06-11 03:56:00,
2013-06-11 07:01:00,70.0,60.2,29.76,WNW,292,0.0,4.3,71,0.00,,---,0.05,VWS V13.01,2013-06-11 04:01:00,
2013-06-11 07:06:00,70.0,60.2,29.75,NNW,337,2.2,6.7,71,0.00,,---,0.05,VWS V13.01,2013-06-11 04:06:00,
2013-06-11 07:11:00,70.2,60.4,29.75,NW,315,2.5,4.5,71,0.00,,---,0.05,VWS V13.01,2013-06-11 04:11:00,
2013-06-11 07:17:00,70.3,60.5,29.75,North,0,5.8,6.3,71,0.00,,---,0.05,VWS V13.01,2013-06-11 04:17:00,
2013-06-11 07:22:00,70.3,60.5,29.75,NNW,337,3.6,5.1,71,0.00,,---,0.05,VWS V13.01,2013-06-11 04:22:00,
2013-06-11 07:27:00,70.5,60.7,29.75,NW,315,1.1,4.5,71,0.00,,---,0.05,VWS V13.01,2013-06-11 04:27:00,
2013-06-11 07:32:00,70.7,60.8,29.75,NNW,337,2.7,3.1,71,0.00,,---,0.05,VWS V13.01,2013-06-11 04:32:00,
2013-06-11 07:37:00,70.9,61.0,29.75,North,0,0.0,6.0,71,0.00,,---,0.05,VWS V13.01,2013-06-11 04:37:00,
2013-06-11 07:42:00,71.2,60.9,29.75,NNW,337,6.9,6.9,70,0.00,,---,0.05,VWS V13.01,2013-06-11 04:42:00,
2013-06-11 07:47:00,71.4,61.1,29.75,North,0,2.5,2.5,70,0.00,,---,0.05,VWS V13.01,2013-06-11 04:47:00,
2013-06-11 07:52:00,71.4,60.7,29.75,ESE,112,0.0,3.8,69,0.00,,---,0.05,VWS V13.01,2013-06-11 04:52:00,
2013-06-11 07:57:00,72.0,60.9,29.75,NNE,22,0.0,3.4,68,0.00,,---,0.05,VWS V13.01,2013-06-11 04:57:00,
2013-06-11 08:02:00,72.1,61.0,29.75,NNW,337,1.8,4.7,68,0.00,,---,0.05,VWS V13.01,2013-06-11 05:02:00,
2013-06-11 08:07:00,72.5,60.9,29.75,North,0,5.1,5.1,67,0.00,,---,0.05,VWS V13.01,2013-06-11 05:07:00,
2013-06-11 08:12:00,73.0,61.0,29.75,NNW,337,3.6,3.6,66,0.00,,---,0.05,VWS V13.01,2013-06-11 05:12:00,
2013-06-11 08:17:00,73.2,60.7,29.75,NNW,337,1.8,6.9,65,0.00,,---,0.05,VWS V13.01,2013-06-11 05:17:00,
2013-06-11 08:22:00,73.8,61.3,29.75,NNE,22,2.0,2.0,65,0.00,,---,0.05,VWS V13.01,2013-06-11 05:22:00,
2013-06-11 08:27:00,73.9,61.4,29.75,NNW,337,2.7,5.1,65,0.00,,---,0.05,VWS V13.01,2013-06-11 05:27:00,
2013-06-11 08:32:00,74.3,60.9,29.74,NNE,22,0.0,3.6,63,0.00,,---,0.05,VWS V13.01,2013-06-11 05:32:00,
2013-06-11 08:37:00,74.5,60.6,29.75,NE,45,0.0,5.4,62,0.00,,---,0.05,VWS V13.01,2013-06-11 05:37:00,
2013-06-11 08:42:00,74.8,60.9,29.74,North,0,4.7,4.7,62,0.00,,---,0.05,VWS V13.01,2013-06-11 05:42:00,
2013-06-11 08:47:00,75.0,60.7,29.74,NNW,337,4.9,5.6,61,0.00,,---,0.05,VWS V13.01,2013-06-11 05:47:00,
2013-06-11 08:52:00,75.4,60.6,29.73,NNE,22,1.3,2.0,60,0.00,,---,0.05,VWS V13.01,2013-06-11 05:52:00,
2013-06-11 08:57:00,75.7,60.4,29.74,NNW,337,3.6,7.2,59,0.00,,---,0.05,VWS V13.01,2013-06-11 05:57:00,
2013-06-11 09:02:00,75.9,60.1,29.74,ENE,67,0.0,2.5,58,0.00,,---,0.05,VWS V13.01,2013-06-11 06:02:00,
2013-06-11 09:07:00,76.1,60.8,29.73,NNW,337,2.5,3.6,59,0.00,,---,0.05,VWS V13.01,2013-06-11 06:07:00,
2013-06-11 09:12:00,76.6,60.2,29.74,NNW,337,0.0,5.4,57,0.00,,---,0.05,VWS V13.01,2013-06-11 06:12:00,
2013-06-11 09:17:00,76.8,59.4,29.74,East,90,3.4,5.8,55,0.00,,---,0.05,VWS V13.01,2013-06-11 06:17:00,
2013-06-11 09:22:00,77.4,59.5,29.74,SE,135,2.0,4.0,54,0.00,,---,0.05,VWS V13.01,2013-06-11 06:22:00,
2013-06-11 09:27:00,77.7,59.8,29.73,NNE,22,1.3,2.7,54,0.00,,---,0.05,VWS V13.01,2013-06-11 06:27:00,
2013-06-11 09:32:00,78.1,59.6,29.73,NE,45,0.0,3.8,53,0.00,,---,0.05,VWS V13.01,2013-06-11 06:32:00,
2013-06-11 09:37:00,78.4,59.3,29.73,SE,135,3.1,5.4,52,0.00,,---,0.05,VWS V13.01,2013-06-11 06:37:00,
2013-06-11 09:42:00,78.6,59.5,29.73,ENE,67,3.1,5.6,52,0.00,,---,0.05,VWS V13.01,2013-06-11 06:42:00,
2013-06-11 09:47:00,79.0,59.3,29.73,ESE,112,2.2,9.2,51,0.00,,---,0.05,VWS V13.01,2013-06-11 06:47:00,
2013-06-11 09:52:00,79.3,59.6,29.72,ESE,112,3.1,3.1,51,0.00,,---,0.05,VWS V13.01,2013-06-11 06:52:00,
2013-06-11 09:57:00,79.7,58.9,29.72,ESE,112,0.0,6.5,49,0.00,,---,0.05,VWS V13.01,2013-06-11 06:57:00,
2013-06-11 10:02:00,80.4,58.3,29.72,North,0,0.0,3.8,47,0.00,,---,0.05,VWS V13.01,2013-06-11 07:02:00,
2013-06-11 10:07:00,81.0,58.9,29.72,ENE,67,1.6,4.0,47,0.00,,---,0.05,VWS V13.01,2013-06-11 07:07:00,
2013-06-11 10:12:00,81.7,58.3,29.72,North,0,3.4,3.6,45,0.00,,---,0.05,VWS V13.01,2013-06-11 07:12:00,
2013-06-11 10:17:00,81.5,57.5,29.72,SSE,157,2.5,5.4,44,0.00,,---,0.05,VWS V13.01,2013-06-11 07:17:00,
2013-06-11 10:22:00,82.0,58.0,29.72,SW,225,0.0,3.4,44,0.00,,---,0.05,VWS V13.01,2013-06-11 07:22:00,
2013-06-11 10:27:00,83.1,58.3,29.72,SSE,157,1.3,2.2,43,0.00,,---,0.05,VWS V13.01,2013-06-11 07:27:00,
2013-06-11 10:32:00,82.9,56.8,29.72,North,0,0.0,1.6,41,0.00,,---,0.05,VWS V13.01,2013-06-11 07:32:00,
2013-06-11 10:37:00,83.1,58.3,29.72,NW,315,0.0,2.0,43,0.00,,---,0.05,VWS V13.01,2013-06-11 07:37:00,
2013-06-11 10:42:00,83.5,58.7,29.72,SSW,202,4.5,4.5,43,0.00,,---,0.05,VWS V13.01,2013-06-11 07:42:00,
2013-06-11 10:48:00,84.0,58.5,29.72,SSE,157,5.6,6.7,42,0.00,,---,0.05,VWS V13.01,2013-06-11 07:48:00,
2013-06-11 10:53:00,84.7,59.1,29.72,SSE,157,1.8,2.9,42,0.00,,---,0.05,VWS V13.01,2013-06-11 07:53:00,
2013-06-11 10:58:00,85.3,58.3,29.72,SSW,202,2.0,2.0,40,0.00,,---,0.05,VWS V13.01,2013-06-11 07:58:00,
2013-06-11 11:03:00,85.5,57.7,29.72,SSE,157,2.5,2.5,39,0.00,,---,0.05,VWS V13.01,2013-06-11 08:03:00,
2013-06-11 11:08:00,85.3,57.6,29.72,South,180,5.1,5.1,39,0.00,,---,0.05,VWS V13.01,2013-06-11 08:08:00,
2013-06-11 11:13:00,84.9,57.9,29.72,SW,225,0.0,2.9,40,0.00,,---,0.05,VWS V13.01,2013-06-11 08:13:00,
2013-06-11 11:18:00,84.7,57.7,29.72,SSE,157,0.0,2.5,40,0.00,,---,0.05,VWS V13.01,2013-06-11 08:18:00,
2013-06-11 11:23:00,85.6,57.1,29.72,SW,225,6.5,6.5,38,0.00,,---,0.05,VWS V13.01,2013-06-11 08:23:00,
2013-06-11 11:28:00,86.4,57.8,29.72,SSE,157,3.6,4.0,38,0.00,,---,0.05,VWS V13.01,2013-06-11 08:28:00,
2013-06-11 11:33:00,86.5,57.2,29.72,ENE,67,3.1,3.1,37,0.00,,---,0.05,VWS V13.01,2013-06-11 08:33:00,
2013-06-11 11:38:00,86.2,56.9,29.72,SW,225,0.0,0.9,37,0.00,,---,0.05,VWS V13.01,2013-06-11 08:38:00,
2013-06-11 11:43:00,87.1,57.7,29.72,SE,135,0.0,1.1,37,0.00,,---,0.05,VWS V13.01,2013-06-11 08:43:00,
2013-06-11 11:48:00,87.4,57.2,29.72,SSE,157,1.3,4.0,36,0.00,,---,0.05,VWS V13.01,2013-06-11 08:48:00,
2013-06-11 11:53:00,87.1,57.7,29.72,South,180,0.0,2.7,37,0.00,,---,0.05,VWS V13.01,2013-06-11 08:53:00,
2013-06-11 11:58:00,87.4,58.0,29.72,South,180,0.0,3.8,37,0.00,,---,0.05,VWS V13.01,2013-06-11 08:58:00,
2013-06-11 12:03:00,87.6,57.4,29.72,South,180,1.3,1.3,36,0.00,,---,0.05,VWS V13.01,2013-06-11 09:03:00,
2013-06-11 12:08:00,87.6,58.1,29.72,West,270,1.3,1.3,37,0.00,,---,0.05,VWS V13.01,2013-06-11 09:08:00,
2013-06-11 12:13:00,88.5,58.2,29.72,SSW,202,4.5,7.2,36,0.00,,---,0.05,VWS V13.01,2013-06-11 09:13:00,
2013-06-11 12:18:00,88.3,58.0,29.72,NNW,337,0.0,6.3,36,0.00,,---,0.05,VWS V13.01,2013-06-11 09:18:00,
2013-06-11 12:23:00,88.2,57.9,29.72,South,180,0.0,4.0,36,0.00,,---,0.05,VWS V13.01,2013-06-11 09:23:00,
2013-06-11 12:28:00,88.5,58.2,29.71,SSE,157,0.9,6.3,36,0.00,,---,0.05,VWS V13.01,2013-06-11 09:28:00,
2013-06-11 12:33:00,88.9,58.5,29.71,SSW,202,0.0,6.9,36,0.00,,---,0.05,VWS V13.01,2013-06-11 09:33:00,
2013-06-11 12:38:00,88.7,57.6,29.71,SSE,157,3.6,5.1,35,0.00,,---,0.05,VWS V13.01,2013-06-11 09:38:00,
2013-06-11 12:43:00,88.9,58.5,29.71,SSW,202,5.8,6.9,36,0.00,,---,0.05,VWS V13.01,2013-06-11 09:43:00,
2013-06-11 12:48:00,88.9,58.5,29.70,SSW,202,4.3,5.6,36,0.00,,---,0.05,VWS V13.01,2013-06-11 09:48:00,
2013-06-11 12:53:00,89.2,59.5,29.70,WSW,247,11.6,11.6,37,0.00,,---,0.05,VWS V13.01,2013-06-11 09:53:00,
2013-06-11 12:58:00,89.2,59.5,29.70,SE,135,2.2,2.2,37,0.00,,---,0.05,VWS V13.01,2013-06-11 09:58:00,
2013-06-11 13:03:00,88.9,59.3,29.70,WSW,247,0.0,2.9,37,0.00,,---,0.05,VWS V13.01,2013-06-11 10:03:00,
2013-06-11 13:08:00,89.2,58.8,29.69,SSE,157,4.0,4.3,36,0.00,,---,0.05,VWS V13.01,2013-06-11 10:08:00,
2013-06-11 13:13:00,88.7,59.1,29.70,SSE,157,4.7,5.8,37,0.00,,---,0.05,VWS V13.01,2013-06-11 10:13:00,
2013-06-11 13:18:00,88.5,58.9,29.69,South,180,3.8,3.8,37,0.00,,---,0.05,VWS V13.01,2013-06-11 10:18:00,
2013-06-11 13:23:00,88.9,59.3,29.69,SSW,202,8.9,8.9,37,0.00,,---,0.05,VWS V13.01,2013-06-11 10:23:00,
2013-06-11 13:28:00,88.7,58.3,29.69,SE,135,3.8,10.3,36,0.00,,---,0.05,VWS V13.01,2013-06-11 10:28:00,
2013-06-11 13:33:00,88.0,58.5,29.69,South,180,8.1,9.2,37,0.00,,---,0.05,VWS V13.01,2013-06-11 10:33:00,
2013-06-11 13:38:00,88.2,58.7,29.69,SW,225,0.9,0.9,37,0.00,,---,0.05,VWS V13.01,2013-06-11 10:38:00,
2013-06-11 13:43:00,89.1,58.7,29.69,South,180,7.4,11.2,36,0.00,,---,0.05,VWS V13.01,2013-06-11 10:43:00,
2013-06-11 13:48:00,88.9,58.5,29.69,South,180,2.9,4.5,36,0.00,,---,0.05,VWS V13.01,2013-06-11 10:48:00,
2013-06-11 13:53:00,88.9,57.7,29.69,SSE,157,4.7,8.5,35,0.00,,---,0.05,VWS V13.01,2013-06-11 10:53:00,
2013-06-11 13:58:00,88.7,58.3,29.68,SSW,202,6.7,6.7,36,0.00,,---,0.05,VWS V13.01,2013-06-11 10:58:00,
2013-06-11 14:03:00,88.7,57.6,29.68,SSW,202,0.0,8.1,35,0.00,,---,0.05,VWS V13.01,2013-06-11 11:03:00,
2013-06-11 14:08:00,88.7,56.8,29.68,South,180,3.6,9.2,34,0.00,,---,0.05,VWS V13.01,2013-06-11 11:08:00,
2013-06-11 14:13:00,88.5,56.6,29.68,SSW,202,1.6,11.2,34,0.00,,---,0.05,VWS V13.01,2013-06-11 11:13:00,
2013-06-11 14:18:00,89.1,57.1,29.68,SE,135,0.0,3.6,34,0.00,,---,0.05,VWS V13.01,2013-06-11 11:18:00,
2013-06-11 14:23:00,89.4,56.5,29.67,South,180,0.0,8.7,33,0.00,,---,0.05,VWS V13.01,2013-06-11 11:23:00,
2013-06-11 14:28:00,89.4,56.5,29.68,SSW,202,6.5,6.7,33,0.00,,---,0.05,VWS V13.01,2013-06-11 11:28:00,
2013-06-11 14:33:00,89.2,56.4,29.67,SSW,202,6.0,8.5,33,0.00,,---,0.05,VWS V13.01,2013-06-11 11:33:00,
2013-06-11 14:38:00,89.2,55.5,29.67,SE,135,1.6,8.3,32,0.00,,---,0.05,VWS V13.01,2013-06-11 11:38:00,
2013-06-11 14:43:00,89.2,56.4,29.67,South,180,0.0,5.4,33,0.00,,---,0.05,VWS V13.01,2013-06-11 11:43:00,
2013-06-11 14:48:00,89.4,55.7,29.66,South,180,7.2,7.2,32,0.00,,---,0.05,VWS V13.01,2013-06-11 11:48:00,
2013-06-11 14:53:00,89.4,55.7,29.67,SSE,157,1.1,10.1,32,0.00,,---,0.05,VWS V13.01,2013-06-11 11:53:00,
2013-06-11 14:58:00,90.1,55.4,29.66,SSW,202,10.5,10.5,31,0.00,,---,0.05,VWS V13.01,2013-06-11 11:58:00,
2013-06-11 15:03:00,89.8,55.2,29.66,SSW,202,5.1,8.9,31,0.00,,---,0.05,VWS V13.01,2013-06-11 12:03:00,
2013-06-11 15:08:00,89.6,55.0,29.66,SSW,202,7.6,10.3,31,0.00,,---,0.05,VWS V13.01,2013-06-11 12:08:00,
2013-06-11 15:13:00,88.9,55.3,29.65,South,180,6.3,6.3,32,0.00,,---,0.05,VWS V13.01,2013-06-11 12:13:00,
2013-06-11 15:18:00,89.2,54.6,29.65,South,180,0.0,1.6,31,0.00,,---,0.05,VWS V13.01,2013-06-11 12:18:00,
2013-06-11 15:23:00,89.4,54.8,29.65,South,180,4.9,12.3,31,0.00,,---,0.05,VWS V13.01,2013-06-11 12:23:00,
2013-06-11 15:29:00,89.1,54.6,29.65,SSW,202,5.8,7.4,31,0.00,,---,0.05,VWS V13.01,2013-06-11 12:29:00,
2013-06-11 15:34:00,88.9,53.5,29.65,South,180,5.8,9.8,30,0.00,,---,0.05,VWS V13.01,2013-06-11 12:34:00,
2013-06-11 15:39:00,88.9,52.6,29.64,SSW,202,13.0,15.7,29,0.00,,---,0.05,VWS V13.01,2013-06-11 12:39:00,
2013-06-11 15:44:00,88.9,52.6,29.64,SSE,157,3.1,3.1,29,0.00,,---,0.05,VWS V13.01,2013-06-11 12:44:00,
2013-06-11 15:49:00,88.9,52.6,29.63,South,180,2.0,5.1,29,0.00,,---,0.05,VWS V13.01,2013-06-11 12:49:00,
2013-06-11 15:54:00,89.1,52.7,29.64,South,180,7.8,7.8,29,0.00,,---,0.05,VWS V13.01,2013-06-11 12:54:00,
2013-06-11 15:59:00,88.3,52.0,29.64,SSE,157,4.7,14.1,29,0.00,,---,0.05,VWS V13.01,2013-06-11 12:59:00,
2013-06-11 16:04:00,88.3,53.0,29.64,West,270,5.8,15.9,30,0.00,,---,0.05,VWS V13.01,2013-06-11 13:04:00,
2013-06-11 16:09:00,88.2,53.8,29.63,SSE,157,11.2,11.2,31,0.00,,---,0.05,VWS V13.01,2013-06-11 13:09:00,
2013-06-11 16:14:00,87.8,53.4,29.64,South,180,6.3,6.3,31,0.00,,---,0.05,VWS V13.01,2013-06-11 13:14:00,
2013-06-11 16:19:00,87.8,54.3,29.63,South,180,9.8,15.9,32,0.00,,---,0.05,VWS V13.01,2013-06-11 13:19:00,
2013-06-11 16:24:00,87.6,53.3,29.63,SSW,202,13.6,13.6,31,0.00,,---,0.05,VWS V13.01,2013-06-11 13:24:00,
2013-06-11 16:29:00,87.4,54.0,29.62,SSE,157,4.9,9.6,32,0.00,,---,0.05,VWS V13.01,2013-06-11 13:29:00,
2013-06-11 16:34:00,87.6,53.3,29.63,South,180,8.1,8.1,31,0.00,,---,0.05,VWS V13.01,2013-06-11 13:34:00,
2013-06-11 16:39:00,87.1,53.7,29.62,SSE,157,1.3,8.7,32,0.00,,---,0.05,VWS V13.01,2013-06-11 13:39:00,
2013-06-11 16:44:00,86.9,53.5,29.63,South,180,5.1,9.4,32,0.00,,---,0.05,VWS V13.01,2013-06-11 13:44:00,
2013-06-11 16:49:00,86.7,53.3,29.63,South,180,4.3,12.8,32,0.00,,---,0.05,VWS V13.01,2013-06-11 13:49:00,
2013-06-11 16:54:00,86.9,53.5,29.63,SSE,157,4.7,4.7,32,0.00,,---,0.05,VWS V13.01,2013-06-11 13:54:00,
2013-06-11 16:59:00,87.1,53.7,29.62,South,180,9.2,9.2,32,0.00,,---,0.05,VWS V13.01,2013-06-11 13:59:00,
2013-06-11 17:04:00,86.7,52.5,29.62,WSW,247,7.6,8.3,31,0.00,,---,0.05,VWS V13.01,2013-06-11 14:04:00,
2013-06-11 18:06:00,86.7,53.3,29.60,SSW,202,0.0,6.5,32,0.00,,---,0.05,VWS V13.01,2013-06-11 15:06:00,
2013-06-11 18:11:00,87.1,52.8,29.60,SSW,202,12.1,12.1,31,0.00,,---,0.05,VWS V13.01,2013-06-11 15:11:00,
2013-06-11 18:17:00,86.9,51.8,29.60,SSW,202,6.3,6.3,30,0.00,,---,0.05,VWS V13.01,2013-06-11 15:17:00,
2013-06-11 18:22:00,86.5,53.2,29.60,South,180,3.4,8.7,32,0.00,,---,0.05,VWS V13.01,2013-06-11 15:22:00,
2013-06-11 18:27:00,85.8,52.6,29.60,SW,225,2.0,10.1,32,0.00,,---,0.05,VWS V13.01,2013-06-11 15:27:00,
2013-06-11 18:32:00,85.6,52.4,29.60,South,180,6.9,6.9,32,0.00,,---,0.05,VWS V13.01,2013-06-11 15:32:00,
2013-06-11 18:37:00,85.3,53.0,29.60,SSE,157,3.6,3.6,33,0.00,,---,0.05,VWS V13.01,2013-06-11 15:37:00,
2013-06-11 18:42:00,85.3,53.0,29.60,SSE,157,3.8,3.8,33,0.00,,---,0.05,VWS V13.01,2013-06-11 15:42:00,
2013-06-11 18:47:00,85.3,53.0,29.60,South,180,2.5,7.2,33,0.00,,---,0.05,VWS V13.01,2013-06-11 15:47:00,
2013-06-11 18:52:00,85.3,53.8,29.60,SSE,157,0.0,5.4,34,0.00,,---,0.05,VWS V13.01,2013-06-11 15:52:00,
2013-06-11 18:57:00,85.3,53.8,29.60,SSE,157,0.0,1.6,34,0.00,,---,0.05,VWS V13.01,2013-06-11 15:57:00,
2013-06-11 19:02:00,85.3,53.8,29.60,SSW,202,2.5,2.5,34,0.00,,---,0.05,VWS V13.01,2013-06-11 16:02:00,
2013-06-11 19:07:00,85.3,53.8,29.60,SE,135,1.1,2.0,34,0.00,,---,0.05,VWS V13.01,2013-06-11 16:07:00,
2013-06-11 19:12:00,85.3,53.8,29.60,SSW,202,1.1,1.1,34,0.00,,---,0.05,VWS V13.01,2013-06-11 16:12:00,
2013-06-11 19:17:00,85.1,53.6,29.60,WSW,247,1.1,1.3,34,0.00,,---,0.05,VWS V13.01,2013-06-11 16:17:00,
2013-06-11 19:22:00,84.9,54.2,29.61,SSE,157,0.0,2.9,35,0.00,,---,0.05,VWS V13.01,2013-06-11 16:22:00,
2013-06-11 19:27:00,84.9,54.2,29.60,SE,135,3.1,6.5,35,0.00,,---,0.05,VWS V13.01,2013-06-11 16:27:00,
2013-06-11 19:32:00,84.7,54.0,29.60,SSE,157,6.9,6.9,35,0.00,,---,0.05,VWS V13.01,2013-06-11 16:32:00,
2013-06-11 19:37:00,84.2,53.6,29.60,ENE,67,2.5,6.7,35,0.00,,---,0.05,VWS V13.01,2013-06-11 16:37:00,
2013-06-11 19:42:00,83.8,54.0,29.61,ESE,112,0.0,3.6,36,0.00,,---,0.05,VWS V13.01,2013-06-11 16:42:00,
2013-06-11 19:47:00,83.5,53.8,29.61,East,90,2.2,2.2,36,0.00,,---,0.05,VWS V13.01,2013-06-11 16:47:00,
2013-06-11 19:52:00,83.3,53.6,29.61,ESE,112,0.0,2.5,36,0.00,,---,0.05,VWS V13.01,2013-06-11 16:52:00,
2013-06-11 19:57:00,83.1,53.4,29.61,South,180,3.1,6.0,36,0.00,,---,0.05,VWS V13.01,2013-06-11 16:57:00,
2013-06-11 20:02:00,82.8,53.2,29.61,ENE,67,0.0,2.2,36,0.00,,---,0.05,VWS V13.01,2013-06-11 17:02:00,
2013-06-11 20:07:00,82.4,52.8,29.61,East,90,0.0,6.0,36,0.00,,---,0.05,VWS V13.01,2013-06-11 17:07:00,
2013-06-11 20:12:00,82.2,52.6,29.61,SE,135,3.1,3.1,36,0.00,,---,0.05,VWS V13.01,2013-06-11 17:12:00,
2013-06-11 20:17:00,81.9,52.3,29.61,ENE,67,0.0,5.6,36,0.00,,---,0.05,VWS V13.01,2013-06-11 17:17:00,
2013-06-11 20:22:00,81.7,52.9,29.62,NNW,337,0.9,1.1,37,0.00,,---,0.05,VWS V13.01,2013-06-11 17:22:00,
2013-06-11 20:27:00,81.3,52.6,29.62,NNW,337,0.0,3.8,37,0.00,,---,0.05,VWS V13.01,2013-06-11 17:27:00,
2013-06-11 20:32:00,81.1,53.1,29.63,NNW,337,1.6,4.3,38,0.00,,---,0.05,VWS V13.01,2013-06-11 17:32:00,
2013-06-11 20:37:00,81.0,55.1,29.64,NNE,22,11.4,11.4,41,0.00,,---,0.05,VWS V13.01,2013-06-11 17:37:00,
2013-06-11 20:42:00,80.4,55.2,29.63,North,0,6.3,6.3,42,0.00,,---,0.05,VWS V13.01,2013-06-11 17:42:00,
2013-06-11 20:47:00,80.2,55.7,29.63,NNW,337,0.0,5.1,43,0.00,,---,0.05,VWS V13.01,2013-06-11 17:47:00,
2013-06-11 20:52:00,79.9,55.4,29.63,WNW,292,0.0,1.6,43,0.00,,---,0.05,VWS V13.01,2013-06-11 17:52:00,
2013-06-11 20:57:00,79.7,55.9,29.63,NNW,337,0.7,2.0,44,0.00,,---,0.05,VWS V13.01,2013-06-11 17:57:00,
2013-06-11 21:02:00,79.3,55.5,29.64,NW,315,0.9,3.8,44,0.00,,---,0.05,VWS V13.01,2013-06-11 18:02:00,
2013-06-11 21:07:00,79.3,56.1,29.63,North,0,0.0,6.9,45,0.00,,---,0.05,VWS V13.01,2013-06-11 18:07:00,
2013-06-11 21:12:00,79.0,55.9,29.64,NNW,337,4.0,4.0,45,0.00,,---,0.05,VWS V13.01,2013-06-11 18:12:00,
2013-06-11 21:17:00,78.8,56.9,29.64,NNW,337,3.8,5.4,47,0.00,,---,0.05,VWS V13.01,2013-06-11 18:17:00,
2013-06-11 21:22:00,78.6,57.3,29.64,NNW,337,2.7,5.4,48,0.00,,---,0.05,VWS V13.01,2013-06-11 18:22:00,
2013-06-11 21:27:00,78.4,57.7,29.64,West,270,0.0,4.0,49,0.00,,---,0.05,VWS V13.01,2013-06-11 18:27:00,
2013-06-11 21:32:00,78.1,58.0,29.65,NNW,337,1.6,2.2,50,0.00,,---,0.05,VWS V13.01,2013-06-11 18:32:00,
2013-06-11 21:37:00,77.9,58.3,29.65,ENE,67,2.0,4.7,51,0.00,,---,0.05,VWS V13.01,2013-06-11 18:37:00,
2013-06-11 21:43:00,77.7,58.7,29.65,North,0,6.5,11.4,52,0.00,,---,0.05,VWS V13.01,2013-06-11 18:43:00,
2013-06-11 21:48:00,77.5,58.5,29.65,NE,45,0.0,4.9,52,0.00,,---,0.05,VWS V13.01,2013-06-11 18:48:00,
2013-06-11 21:53:00,77.5,59.0,29.65,North,0,0.0,2.9,53,0.00,,---,0.05,VWS V13.01,2013-06-11 18:53:00,
2013-06-11 21:58:00,77.4,59.0,29.66,NNW,337,4.5,5.1,53,0.00,,---,0.05,VWS V13.01,2013-06-11 18:58:00,
2013-06-11 22:03:00,77.2,58.8,29.66,NNE,22,3.6,8.9,53,0.00,,---,0.05,VWS V13.01,2013-06-11 19:03:00,
2013-06-11 22:08:00,77.0,58.6,29.66,NE,45,0.0,5.4,53,0.00,,---,0.05,VWS V13.01,2013-06-11 19:08:00,
2013-06-11 22:13:00,76.8,58.4,29.67,NW,315,2.5,8.1,53,0.00,,---,0.05,VWS V13.01,2013-06-11 19:13:00,
2013-06-11 22:18:00,76.8,58.9,29.67,NNW,337,7.6,12.1,54,0.00,,---,0.05,VWS V13.01,2013-06-11 19:18:00,
2013-06-11 22:23:00,76.6,59.2,29.67,NNW,337,5.6,5.6,55,0.00,,---,0.05,VWS V13.01,2013-06-11 19:23:00,
2013-06-11 22:28:00,76.6,59.2,29.67,NW,315,4.7,4.7,55,0.00,,---,0.05,VWS V13.01,2013-06-11 19:28:00,
2013-06-11 22:33:00,76.3,59.5,29.67,NW,315,9.8,9.8,56,0.00,,---,0.05,VWS V13.01,2013-06-11 19:33:00,
2013-06-11 22:38:00,76.1,59.3,29.67,NW,315,5.8,5.8,56,0.00,,---,0.05,VWS V13.01,2013-06-11 19:38:00,
2013-06-11 22:43:00,75.9,59.6,29.67,NNW,337,11.0,18.1,57,0.00,,---,0.05,VWS V13.01,2013-06-11 19:43:00,
2013-06-11 22:48:00,75.6,58.8,29.67,NNW,337,6.9,6.9,56,0.00,,---,0.05,VWS V13.01,2013-06-11 19:48:00,
2013-06-11 22:53:00,75.4,58.6,29.67,NW,315,0.0,3.1,56,0.00,,---,0.05,VWS V13.01,2013-06-11 19:53:00,
2013-06-11 22:58:00,75.2,58.9,29.66,NNW,337,0.0,1.6,57,0.00,,---,0.05,VWS V13.01,2013-06-11 19:58:00,
2013-06-11 23:03:00,75.2,58.9,29.66,ESE,112,0.0,0.7,57,0.00,,---,0.05,VWS V13.01,2013-06-11 20:03:00,
2013-06-11 23:08:00,75.0,58.8,29.66,ESE,112,0.0,1.6,57,0.00,,---,0.05,VWS V13.01,2013-06-11 20:08:00,
2013-06-11 23:13:00,75.0,58.8,29.66,East,90,0.0,1.6,57,0.00,,---,0.05,VWS V13.01,2013-06-11 20:13:00,
2013-06-11 23:18:00,75.0,58.3,29.66,SSE,157,0.0,1.3,56,0.00,,---,0.05,VWS V13.01,2013-06-11 20:18:00,
2013-06-11 23:23:00,75.0,58.3,29.66,ESE,112,0.0,1.3,56,0.00,,---,0.05,VWS V13.01,2013-06-11 20:23:00,
2013-06-11 23:28:00,75.0,58.3,29.66,East,90,0.0,1.3,56,0.00,,---,0.05,VWS V13.01,2013-06-11 20:28:00,
2013-06-11 23:33:00,74.8,58.1,29.65,ESE,112,0.0,1.3,56,0.00,,---,0.05,VWS V13.01,2013-06-11 20:33:00,
2013-06-11 23:38:00,74.8,58.1,29.65,East,90,0.0,0.9,56,0.00,,---,0.05,VWS V13.01,2013-06-11 20:38:00,
2013-06-11 23:43:00,74.8,58.1,29.65,North,0,0.0,1.1,56,0.00,,---,0.05,VWS V13.01,2013-06-11 20:43:00,
2013-06-11 23:48:00,74.8,57.6,29.65,ESE,112,1.8,2.2,55,0.00,,---,0.05,VWS V13.01,2013-06-11 20:48:00,
2013-06-11 23:53:00,74.8,57.6,29.65,SE,135,0.0,2.0,55,0.00,,---,0.05,VWS V13.01,2013-06-11 20:53:00,
2013-06-11 23:58:00,74.5,56.8,29.65,East,90,0.0,2.9,54,0.00,,---,0.05,VWS V13.01,2013-06-11 20:58:00,